Location: Newark
(50.0306°N, 2.3272°E)
Time: 12:51:31
(UTC+00:00)

Vanguard 1 - Pass Details

Date: 17 December 2019
Orbit: 651 x 3832 km, 34.2° (Epoch: 17 January)

Event Time Altitude Azimuth Distance (km) Brightness Sun altitude
Exits shadow 05:27:58 15° 253° (WSW) 6,486 13.7 -20.6°
Maximum altitude 05:47:13 49° 191° (S) 4,196 13.2 -17.6°
Drops below altitude 10° 06:03:42 10° 124° (ESE) 5,368 15.1 -15.0°
Sets 06:07:16 0° 118° (ESE) 6,017 15.9 -14.5°
